Beijing, China

7:52 PM CST on October 17, 2018 (GMT +0800)
Beijing Capital

Weather History for ZBAA - August, 2018

Change the Weather History Date:

Saturday, August 11, 2018

  Actual Average Record
Temperature  
Mean Temperature 82 °F -  
Max Temperature 88 °F 82 °F 96 °F (2003)
Min Temperature 75 °F 65 °F 64 °F (1997)
Cooling Degree Days 16    
Growing Degree Days 32 (Base 50)    
Moisture  
Dew Point 75 °F    
Average Humidity 84    
Maximum Humidity 100    
Minimum Humidity 54    
Precipitation  
Precipitation 0.31 in 0.17 in - ()
Sea Level Pressure  
Sea Level Pressure 29.63 in    
Wind  
Wind Speed 4 mph ()    
Max Wind Speed 18 mph    
Max Gust Speed 29 mph    
Visibility 3.6 miles    
Events Rain , Thunderstorm    
Averages and records for this station are not official NWS values.
T = Trace of Precipitation, MM = Missing Value Source: Averaged Metar Reports

Daily Weather History Graph

Daily Weather History Graph

Search for Another Location

Airport or City:

Astronomy

Aug. 11, 2018 Rise Set
Actual Time 5:20 AM CST 7:16 PM CST
Civil Twilight 4:51 AM CST 7:45 PM CST
Nautical Twilight 4:15 AM CST 8:21 PM CST
Astronomical Twilight 3:36 AM CST 9:00 PM CST
Moon 4:45 AM CST (8/11) 7:18 PM CST (8/11)
Length of Visible Light 14h 54m
Length of Day
13h 55m
Waning Crescent, 0% of the Moon is Illuminated
Aug 11
Waning Crescent
Aug 11
New
Aug 18
First Quarter
Aug 26
Full
Sep 3
Last Quarter

Hourly Weather History & Observations

Time (CST) Temp. Heat Index Dew Point Humidity Pressure Visibility Wind Dir Wind Speed Gust Speed Precip Events Conditions
12:00 AM 82.4 °F 90.9 °F 77.0 °F 84% 29.68 in - SE 4.5 mph - N/A   Clear
12:30 AM 80.6 °F 87.1 °F 77.0 °F 89% 29.68 in - ESE 2.2 mph - N/A   Clear
1:00 AM 80.6 °F 87.1 °F 77.0 °F 89% 29.68 in - East 2.2 mph - N/A   Clear
1:30 AM 80.6 °F 87.1 °F 77.0 °F 89% 29.68 in - East 4.5 mph - N/A   Clear
2:00 AM 83 °F - 75 °F 72% 29.68 in 3 mi South 2.2 mph - -   Haze
2:00 AM 80.6 °F 87.1 °F 77.0 °F 89% 29.68 in - East 4.5 mph - N/A   Clear
2:30 AM 80.6 °F 87.1 °F 77.0 °F 89% 29.68 in 6.2 mi East 4.5 mph - N/A Rain Light Rain Showers
3:00 AM 78.8 °F - 77.0 °F 94% 29.68 in 6.2 mi East 4.5 mph - N/A Rain Light Rain Showers
3:30 AM 78.8 °F - 77.0 °F 94% 29.68 in - ENE 2.2 mph - N/A   Clear
4:00 AM 78.8 °F - 75.2 °F 89% 29.68 in - East 4.5 mph - N/A   Clear
4:30 AM 78.8 °F - 75.2 °F 89% 29.68 in - East 4.5 mph - N/A   Clear
5:00 AM 80 °F - 74 °F 77% 29.68 in 2 mi WSW 4.5 mph - -   Haze
5:00 AM 78.8 °F - 75.2 °F 89% 29.68 in 4.3 mi East 4.5 mph - N/A   Partly Cloudy
5:30 AM 78.8 °F - 75.2 °F 89% 29.68 in 3.1 mi SE 4.5 mph - N/A Rain Light Rain Showers
6:00 AM 77.0 °F - 73.4 °F 89% 29.65 in 5.0 mi NNW 6.7 mph - N/A Rain , Thunderstorm Light Thunderstorms and Rain
6:30 AM 77.0 °F - 73.4 °F 89% 29.65 in 5.0 mi North 4.5 mph - N/A Rain Light Rain Showers
7:00 AM 77.0 °F - 75.2 °F 94% 29.68 in 5.0 mi Variable 2.2 mph - N/A Rain Light Rain Showers
7:30 AM 77.0 °F - 77.0 °F 100% 29.68 in 3.1 mi NNE 4.5 mph - N/A   Mist
8:00 AM 80 °F - 72 °F 71% 29.67 in 11 mi North 2.2 mph - -   Mostly Cloudy
8:00 AM 78.8 °F - 75.2 °F 89% 29.68 in 2.5 mi Variable 2.2 mph - N/A   Mist
8:30 AM 80.6 °F 86.2 °F 75.2 °F 84% 29.68 in 2.5 mi Variable 2.2 mph - N/A   Mist
9:00 AM 80.6 °F 87.1 °F 77.0 °F 89% 29.68 in 2.5 mi NE 4.5 mph - N/A   Mist
9:30 AM 80.6 °F 86.2 °F 75.2 °F 84% 29.68 in 2.2 mi Variable 2.2 mph - N/A   Mist
10:00 AM 82.4 °F 90.9 °F 77.0 °F 84% 29.68 in - Variable 2.2 mph - N/A   Mist
10:30 AM 82.4 °F 90.9 °F 77.0 °F 84% 29.68 in - NNE 4.5 mph - N/A   Mist
11:00 AM 86 °F - 73 °F 58% 29.65 in - NE 4.5 mph - -   Haze
11:00 AM 82.4 °F 89.5 °F 75.2 °F 79% 29.65 in - ENE 4.5 mph - N/A   Mist
11:30 AM 86.0 °F 95.1 °F 75.2 °F 70% 29.65 in 1.7 mi ESE 4.5 mph - N/A   Mist
12:00 PM 86.0 °F 95.1 °F 75.2 °F 70% 29.65 in 1.7 mi Variable 2.2 mph - N/A   Partly Cloudy
12:30 PM 86.0 °F 95.1 °F 75.2 °F 70% 29.62 in 1.8 mi Variable 4.5 mph - N/A   Haze
1:00 PM 86.0 °F 96.9 °F 77.0 °F 74% 29.62 in 2.5 mi ENE 4.5 mph - N/A   Haze
1:30 PM 86.0 °F 96.9 °F 77.0 °F 74% 29.59 in 2.5 mi ENE 4.5 mph - N/A   Haze
2:00 PM 88 °F - 73 °F 54% 29.59 in 4 mi South 4.5 mph - -   Mostly Cloudy
2:00 PM 86.0 °F 96.9 °F 77.0 °F 74% 29.59 in 2.5 mi ENE 4.5 mph - N/A   Haze
2:30 PM 86.0 °F 96.9 °F 77.0 °F 74% 29.59 in 2.2 mi East 6.7 mph - N/A   Haze
3:00 PM 84.2 °F 94.1 °F 77.0 °F 79% 29.56 in 2.2 mi East 6.7 mph - N/A   Haze
3:30 PM 86.0 °F 96.9 °F 77.0 °F 74% 29.56 in 2.5 mi ESE 8.9 mph - N/A Rain , Thunderstorm Light Thunderstorms and Rain
4:00 PM 84.2 °F 92.3 °F 75.2 °F 74% 29.56 in 3.1 mi Variable 2.2 mph - N/A Rain , Thunderstorm Thunderstorms and Rain
4:30 PM 80.6 °F 85.4 °F 73.4 °F 79% 29.56 in 2.8 mi Variable 2.2 mph - N/A Rain , Thunderstorm Light Thunderstorms and Rain
5:00 PM 80 °F - 76 °F 84% 29.57 in 1 mi South 4.5 mph - - Rain Light Rain Showers
5:00 PM 78.8 °F - 73.4 °F 83% 29.56 in 0.5 mi NW 17.9 mph 29.1 mph N/A Rain , Thunderstorm Heavy Thunderstorms and Rain
5:30 PM 75.2 °F - 73.4 °F 94% 29.59 in 0.8 mi SW 8.9 mph - N/A Rain , Thunderstorm Heavy Thunderstorms and Rain
6:00 PM 77.0 °F - 75.2 °F 94% 29.56 in 5.0 mi NNW 4.5 mph - N/A Rain Light Rain Showers
6:30 PM 77.0 °F - 75.2 °F 94% 29.56 in 6.2 mi NE 4.5 mph - N/A Rain Light Rain Showers
7:00 PM 77.0 °F - 75.2 °F 94% 29.56 in 6.2 mi Variable 2.2 mph - N/A   Mostly Cloudy
7:30 PM 77.0 °F - 75.2 °F 94% 29.59 in 4.3 mi ENE 4.5 mph - N/A   Unknown
8:00 PM 80 °F - 74 °F 76% 29.59 in 4 mi NE 2.2 mph - -   Haze
8:00 PM 77.0 °F - 75.2 °F 94% 29.59 in 4.3 mi East 4.5 mph - N/A   Unknown
8:30 PM 77.0 °F - 75.2 °F 94% 29.59 in 4.3 mi NE 4.5 mph - N/A   Unknown
9:00 PM 77.0 °F - 75.2 °F 94% 29.62 in 4.3 mi Variable 2.2 mph - N/A   Partly Cloudy
9:30 PM 77.0 °F - 75.2 °F 94% 29.62 in 4.3 mi NNE 2.2 mph - N/A   Partly Cloudy
10:00 PM 77.0 °F - 75.2 °F 94% 29.62 in 4.3 mi East 4.5 mph - N/A   Partly Cloudy
10:30 PM 77.0 °F - 75.2 °F 94% 29.62 in 4.3 mi NE 2.2 mph - N/A   Partly Cloudy
11:00 PM 78 °F - 74 °F 86% 29.61 in 2 mi ENE 4.5 mph - -   Haze
11:00 PM 77.0 °F - 75.2 °F 94% 29.62 in 4.3 mi NNE 2.2 mph - N/A   Partly Cloudy